BEIDOU-2 G1

Last updated on Tue Jul 01 2025 00:02:45 GMT+0000 (Coordinated Universal Time)

1 36287U 10001A 25181.51679676 -.00000282 00000+0 00000+0 0 9993 2 36287 3.4715 60.7591 0002697 304.3448 240.1924 1.00274612 56642
UTC large
Height (km)
Speed (km/s)
/
Latitude / Longitude
Inclination (degrees)
Orbital Period (minutes)
Azimuth
Elevation
Range (km)
Doppler Factor

Next 0 passes for location: London (51.5072 / 0.1276)

Sorry there are no passes over London.